Regional Weather Roundup
Issued by NWS Mt. Holly, NJ

Home | Current Version | Previous Version | Text Only | Print | Product List | Glossary On
Versions: 1 2 3 4 5 6 7 8 9 10 11 12 13 14 15 16 17 18 19 20 21 22 23 24 25 26 27 28
000
ASUS41 KPHI 240813
RWRPHI

REGIONAL WEATHER ROUNDUP
NATIONAL WEATHER SERVICE MOUNT HOLLY NJ
300 AM EST SAT FEB 24 2018

NOTE:  "FAIR" INDICATES FEW OR NO CLOUDS BELOW 12,000 FEET WITH NO
SIGNIFICANT WEATHER AND/OR OBSTRUCTIONS TO VISIBILITY.

 * = STATION DOES NOT REPORT PRECIPITATION (E.G. RAIN, SNOW, ETC.)
        OR FOG.

NJZ015>026-240900-
SOUTHERN NEW JERSEY

CITY           SKY/WX    TMP DP  RH WIND       PRES   REMARKS
POMONA         CLOUDY    47  46  97 W7        30.19F
WILDWOOD*      FOG       47  46  97 W6        30.22F VSB 3/4
MILLVILLE      CLOUDY    46  45  96 W7        30.20F FOG
WRIGHTSTOWN    CLOUDY    44  43  96 W8        30.16F
MOUNT HOLLY    CLOUDY    44  44 100 W6        30.20F
TRENTON        CLOUDY    44  42  93 W6        30.18S

$$
NJZ001>014-240900-
NORTHERN NEW JERSEY

CITY           SKY/WX    TMP DP  RH WIND       PRES   REMARKS
SUSSEX         CLOUDY    40  39  97 SW7       30.15F
ANDOVER*         N/A     39  39 100 S7        30.16F WCI  34
MORRISTOWN     CLOUDY    43  41  93 SW7       30.16F
NEWARK         CLOUDY    43  41  93 W8        30.17S
TETERBORO      MOCLDY    42  40  92 SW8       30.15F
CALDWELL       MOCLDY    41  41 100 SW3       30.16F
SOMERVILLE     CLOUDY    42  42 100 VRB3      30.16F
ALLAIRE*       CLOUDY    44  43  96 W12       30.17  FOG
TOMS RIVER*    CLOUDY    44  44 100 W12       30.19S FOG

$$
PAZ043-044-047-054-055-060>062-066>071-240900-
EASTERN PENNSYLVANIA

CITY           SKY/WX    TMP DP  RH WIND       PRES   REMARKS
PHILADELPHIA   CLOUDY    44  43  96 W7        30.20F
NORTH PHILA    CLOUDY    46  43  89 W8        30.21S FOG
BLUE BELL*     CLOUDY    41  41 100 CALM      30.20F
DOYLESTOWN     CLOUDY    42  42 100 W7        30.17F
QUAKERTOWN*    CLOUDY    41  43 100 CALM      30.18F FOG
PERKASIE*      FOG       41  41 100 W3        30.18F VSB 3/4
POTTSTOWN      CLOUDY    41  41 100 CALM      30.19F FOG
LANCASTER      FOG       43  43 100 CALM      30.17F VSB 1/2
COATESVILLE    FOG       43  43 100 CALM      30.18F VSB<1/4
READING        FOG       43  43 100 CALM      30.17F VSB 1
ALLENTOWN      CLOUDY    43  40  89 W6        30.18F FOG
MOUNT POCONO   FOG       37  37 100 W14       30.11F VSB 3/4 WCI  28
HAZLETON       FOG       39  37  93 CALM      30.16F VSB<1/4
LEHIGHTON      FOG       37  37 100 CALM      30.18F VSB 1/2
WILKES BARRE   FOG       40  40 100 SW6       30.15F VSB 1/4

$$
DEZALL-MDZ008-012-015-019-020-240900-
DELAWARE AND EASTERN MARYLAND

CITY           SKY/WX    TMP DP  RH WIND       PRES   REMARKS
WILMINGTON     CLOUDY    45  45 100 W3        30.21F FOG
DOVER          FOG       46  46 100 SW6       30.20F VSB 7/8
GEORGETOWN     FOG       49  48  97 W5        30.22F VSB 1
EASTON         FOG       48  47  95 SW3       30.25F VSB 1/2
ABERDEEN       CLOUDY   N/A N/A N/A SW3       30.20F FOG
PATUXENT       CLOUDY    50  50 100 S5        30.19  FOG
OCEAN CITY     FOG       48  48 100 SW5       30.22F VSB 1/2
WALLOPS ISLAND FOG       50  50 100 CALM      30.23F VSB 1/2
CAMBRIDGE      FOG       48  48 100 CALM      30.21F VSB 1/4
SALISBURY      FOG       49  49 100 SW3       30.21F VSB 3/4

$$
PAZ001-021-NYZ056-072-MDZ011-DCZ001-240900-
OTHER NEARBY LOCATIONS

CITY           SKY/WX    TMP DP  RH WIND       PRES   REMARKS
HARRISBURG     FOG       44  42  93 CALM      30.18R VSB 3/4
STATE COLLEGE  CLOUDY    40  40 100 CALM      30.15F FOG
WILLIAMSPORT   FOG       40  40 100 CALM      30.17F VSB 1/4
BINGHAMTON     FOG       37  37 100 NW5       30.12S VSB 1/4 WCI  33
NEW YORK CITY  CLOUDY    43  39  87 VRB5      30.18S
BALTIMORE      FOG       45  45 100 S6        30.19F VSB 1/8
WASHINGTON DC  FOG       49  49 100 CALM      30.19F VSB 1/16

$$




USA.gov is the U.S. government's official web portal to all federal, state and local government web resources and services.